When you browse on this site, cookies collect data to enhance your experience and personalize the content and advertising you see.
Visit our Privacy Policy to learn more. By continuing to use the site, you agree to this use of cookies and data.
  • Em Portugal
  • Lista de países
  • Para 7 dias
  • Temperatura da água
  • Mapas de satélite
  • Mapa do tempo
  • Widgets de tempo
  • user-avatar
    Iniciar Sessão

    Previsão horária em Nizhniy Katruh

    Hoje, 26 Junho, Quarta-feira

    Tempo Temperatura Precipitação Vento Pressão Humidade
    00:00 +13°C° 0 mm 1 m/s 604 mmHg 67%
    01:00 +13°C° 0 mm 1 m/s 604 mmHg 67%
    02:00 +13°C° 0 mm 1 m/s 604 mmHg 67%
    03:00 +13°C° 0 mm 1 m/s 604 mmHg 67%
    04:00 +14°C° 0 mm 1 m/s 605 mmHg 65%
    05:00 +16°C° 0 mm 1 m/s 606 mmHg 62%
    06:00 +19°C° 0 mm 1 m/s 607 mmHg 60%
    07:00 +20°C° 0 mm 1 m/s 607 mmHg 57%
    08:00 +20°C° 0 mm 2 m/s 608 mmHg 54%
    09:00 +21°C° 0 mm 2 m/s 608 mmHg 50%
    10:00 +23°C° 0.3 mm 2 m/s 609 mmHg 52%
    11:00 +22°C° 0.3 mm 3 m/s 609 mmHg 53%
    12:00 +22°C° 0.3 mm 3 m/s 609 mmHg 55%
    13:00 +22°C° 0.6 mm 3 m/s 609 mmHg 55%
    14:00 +22°C° 0.6 mm 3 m/s 608 mmHg 56%
    15:00 +23°C° 0.6 mm 2 m/s 608 mmHg 56%
    16:00 +21°C° 0.4 mm 2 m/s 608 mmHg 59%
    17:00 +20°C° 0.4 mm 2 m/s 608 mmHg 63%
    18:00 +20°C° 0.4 mm 2 m/s 607 mmHg 66%
    19:00 +19°C° 0.2 mm 1 m/s 606 mmHg 70%
    20:00 +16°C° 0.2 mm 1 m/s 606 mmHg 73%
    21:00 +14°C° 0.2 mm 1 m/s 605 mmHg 77%
    22:00 +13°C° 0.1 mm 1 m/s 604 mmHg 78%
    23:00 +13°C° 0.1 mm 1 m/s 604 mmHg 80%

    Amanhã, 27 Junho, Quinta-feira

    Tempo Temperatura Precipitação Vento Pressão Humidade
    00:00 +12°C° 0.1 mm 1 m/s 604 mmHg 81%
    01:00 +12°C° 0 mm 1 m/s 603 mmHg 80%
    02:00 +12°C° 0 mm 1 m/s 603 mmHg 79%
    03:00 +12°C° 0 mm 1 m/s 603 mmHg 78%
    04:00 +13°C° 0.1 mm 1 m/s 604 mmHg 77%
    05:00 +15°C° 0.1 mm 1 m/s 604 mmHg 75%
    06:00 +16°C° 0.1 mm 1 m/s 605 mmHg 73%
    07:00 +18°C° 0.3 mm 1 m/s 605 mmHg 72%
    08:00 +18°C° 0.3 mm 2 m/s 606 mmHg 71%
    09:00 +19°C° 0.3 mm 2 m/s 606 mmHg 70%
    10:00 +19°C° 0.8 mm 2 m/s 606 mmHg 72%
    11:00 +19°C° 0.8 mm 2 m/s 605 mmHg 74%
    12:00 +19°C° 0.8 mm 2 m/s 605 mmHg 76%
    13:00 +19°C° 0.8 mm 2 m/s 605 mmHg 76%
    14:00 +19°C° 0.8 mm 2 m/s 604 mmHg 76%
    15:00 +19°C° 0.8 mm 2 m/s 604 mmHg 76%
    16:00 +18°C° 0.4 mm 2 m/s 604 mmHg 78%
    17:00 +19°C° 0.4 mm 1 m/s 603 mmHg 79%
    18:00 +18°C° 0.4 mm 1 m/s 603 mmHg 81%
    19:00 +16°C° 0.1 mm 1 m/s 602 mmHg 84%
    20:00 +14°C° 0.1 mm 1 m/s 602 mmHg 87%
    21:00 +13°C° 0.1 mm 1 m/s 601 mmHg 90%
    22:00 +13°C° 0.1 mm 1 m/s 601 mmHg 90%
    23:00 +13°C° 0.1 mm 1 m/s 601 mmHg 90%

    Depois de amanhã, 28 Junho, Sexta-feira

    Tempo Temperatura Precipitação Vento Pressão Humidade
    00:00 +12°C° 0.1 mm 1 m/s 600 mmHg 89%
    01:00 +12°C° 0 mm 1 m/s 600 mmHg 88%
    02:00 +12°C° 0 mm 1 m/s 600 mmHg 86%
    03:00 +12°C° 0 mm 1 m/s 599 mmHg 85%
    04:00 +13°C° 0 mm 1 m/s 600 mmHg 83%
    05:00 +14°C° 0 mm 1 m/s 600 mmHg 82%
    06:00 +15°C° 0 mm 1 m/s 601 mmHg 80%
    07:00 +18°C° 0 mm 1 m/s 601 mmHg 76%
    08:00 +19°C° 0 mm 1 m/s 601 mmHg 71%
    09:00 +19°C° 0 mm 2 m/s 602 mmHg 67%
    10:00 +20°C° 0.8 mm 2 m/s 601 mmHg 67%
    11:00 +20°C° 0.8 mm 2 m/s 601 mmHg 68%
    12:00 +20°C° 0.8 mm 2 m/s 601 mmHg 68%
    13:00 +20°C° 1 mm 2 m/s 601 mmHg 66%
    14:00 +21°C° 1 mm 2 m/s 601 mmHg 63%
    15:00 +21°C° 1 mm 2 m/s 600 mmHg 61%
    16:00 +20°C° 0.5 mm 2 m/s 600 mmHg 65%
    17:00 +20°C° 0.5 mm 2 m/s 599 mmHg 69%
    18:00 +19°C° 0.5 mm 2 m/s 599 mmHg 73%
    19:00 +17°C° 0 mm 2 m/s 598 mmHg 77%
    20:00 +15°C° 0 mm 2 m/s 598 mmHg 80%
    21:00 +14°C° 0 mm 2 m/s 597 mmHg 84%
    22:00 +14°C° 0 mm 2 m/s 597 mmHg 84%
    23:00 +14°C° 0 mm 2 m/s 597 mmHg 85%

    29 Junho, Sábado

    Tempo Temperatura Precipitação Vento Pressão Humidade
    00:00 +14°C° 0 mm 2 m/s 597 mmHg 85%
    01:00 +14°C° 0 mm 1 m/s 597 mmHg 85%
    02:00 +14°C° 0 mm 1 m/s 597 mmHg 84%
    03:00 +15°C° 0 mm 1 m/s 597 mmHg 83%
    04:00 +15°C° 0 mm 1 m/s 598 mmHg 83%
    05:00 +15°C° 0 mm 1 m/s 598 mmHg 82%
    06:00 +15°C° 0 mm 1 m/s 598 mmHg 81%
    07:00 +18°C° 0.1 mm 1 m/s 599 mmHg 77%
    08:00 +18°C° 0.1 mm 2 m/s 599 mmHg 72%
    09:00 +19°C° 0.1 mm 2 m/s 600 mmHg 68%
    10:00 +20°C° 0.8 mm 3 m/s 600 mmHg 68%
    11:00 +20°C° 0.8 mm 3 m/s 600 mmHg 69%
    12:00 +20°C° 0.8 mm 3 m/s 600 mmHg 69%
    13:00 +20°C° 1.4 mm 3 m/s 600 mmHg 73%
    14:00 +19°C° 1.4 mm 2 m/s 599 mmHg 77%
    15:00 +18°C° 1.4 mm 2 m/s 599 mmHg 81%
    16:00 +18°C° 1.1 mm 2 m/s 599 mmHg 80%
    17:00 +18°C° 1.1 mm 2 m/s 599 mmHg 78%
    18:00 +19°C° 1.1 mm 1 m/s 599 mmHg 77%
    19:00 +18°C° 0.7 mm 1 m/s 599 mmHg 83%
    20:00 +15°C° 0.7 mm 1 m/s 599 mmHg 89%
    21:00 +14°C° 0.7 mm 1 m/s 600 mmHg 94%
    22:00 +14°C° 2.4 mm 1 m/s 599 mmHg 94%
    23:00 +14°C° 2.4 mm 1 m/s 599 mmHg 93%

    30 Junho, Domingo

    Tempo Temperatura Precipitação Vento Pressão Humidade
    00:00 +13°C° 2.4 mm 1 m/s 599 mmHg 92%
    01:00 +13°C° 0.1 mm 1 m/s 599 mmHg 92%
    02:00 +13°C° 0.1 mm 1 m/s 599 mmHg 91%
    03:00 +13°C° 0.1 mm 1 m/s 599 mmHg 91%
    04:00 +13°C° 0 mm 1 m/s 599 mmHg 90%
    05:00 +13°C° 0 mm 1 m/s 600 mmHg 89%
    06:00 +14°C° 0 mm 1 m/s 600 mmHg 89%
    07:00 +15°C° 0.2 mm 1 m/s 600 mmHg 86%
    08:00 +16°C° 0.2 mm 2 m/s 601 mmHg 83%
    09:00 +17°C° 0.2 mm 3 m/s 601 mmHg 80%
    10:00 +17°C° 0.5 mm 3 m/s 601 mmHg 81%
    11:00 +17°C° 0.5 mm 3 m/s 601 mmHg 82%
    12:00 +17°C° 0.5 mm 3 m/s 601 mmHg 83%
    13:00 +17°C° 0.7 mm 3 m/s 601 mmHg 84%
    14:00 +17°C° 0.7 mm 3 m/s 601 mmHg 86%
    15:00 +16°C° 0.7 mm 2 m/s 600 mmHg 87%
    16:00 +16°C° 0.5 mm 2 m/s 600 mmHg 89%
    17:00 +16°C° 0.5 mm 2 m/s 600 mmHg 90%
    18:00 +15°C° 0.5 mm 1 m/s 601 mmHg 91%
    19:00 +15°C° 0.6 mm 1 m/s 601 mmHg 94%
    20:00 +14°C° 0.6 mm 2 m/s 601 mmHg 96%
    21:00 +14°C° 0.6 mm 2 m/s 601 mmHg 98%
    22:00 +13°C° 1.3 mm 2 m/s 601 mmHg 98%
    23:00 +13°C° 1.3 mm 2 m/s 601 mmHg 98%

    1 Julho, Segunda-feira

    Tempo Temperatura Precipitação Vento Pressão Humidade
    00:00 +13°C° 1.3 mm 2 m/s 601 mmHg 98%
    01:00 +13°C° 1.9 mm 2 m/s 601 mmHg 98%
    02:00 +13°C° 1.9 mm 2 m/s 601 mmHg 98%
    03:00 +13°C° 1.9 mm 2 m/s 601 mmHg 99%
    04:00 +12°C° 1.9 mm 2 m/s 601 mmHg 99%
    05:00 +12°C° 1.9 mm 2 m/s 601 mmHg 98%
    06:00 +12°C° 1.9 mm 2 m/s 601 mmHg 98%
    07:00 +12°C° 1.9 mm 2 m/s 601 mmHg 98%
    08:00 +12°C° 1.9 mm 2 m/s 601 mmHg 98%
    09:00 +12°C° 1.9 mm 2 m/s 601 mmHg 98%
    10:00 +12°C° 3.1 mm 2 m/s 601 mmHg 98%
    11:00 +10°C° 3.1 mm 3 m/s 601 mmHg 98%
    12:00 +10°C° 3.1 mm 3 m/s 601 mmHg 98%
    13:00 +10°C° 2.1 mm 3 m/s 601 mmHg 98%
    14:00 +10°C° 2.1 mm 2 m/s 601 mmHg 98%
    15:00 +10°C° 2.1 mm 2 m/s 601 mmHg 98%
    16:00 +9°C° 1.7 mm 2 m/s 601 mmHg 98%
    17:00 +9°C° 1.7 mm 2 m/s 601 mmHg 98%
    18:00 +10°C° 1.7 mm 1 m/s 601 mmHg 98%
    19:00 +10°C° 1.1 mm 1 m/s 601 mmHg 98%
    20:00 +10°C° 1.1 mm 1 m/s 601 mmHg 97%
    21:00 +9°C° 1.1 mm 1 m/s 601 mmHg 96%
    22:00 +9°C° 1.1 mm 1 m/s 601 mmHg 96%
    23:00 +9°C° 1.1 mm 1 m/s 601 mmHg 96%
    Mostrar mais